Location: Caltech
(34.1382°N, 118.1253°W)
Time: 16:00:34
(UTC-08:00)

Uosat F - Visible Passes

Search period start: 05 March 2015 00:00
Search period end: 15 March 2015 01:00
Orbit: 752 x 761 km, 98.7° (Epoch: 04 March)

Date Brightness Start Highest point End Pass type
(mag) Time Alt. Az. Time Alt. Az. Time Alt. Az.
05 Mar 11.0 04:41:38 10° NNE 04:46:43 89° W 04:51:45 10° SSW visible
06 Mar 12.6 04:02:47 10° NNE 04:07:22 35° E 04:11:57 10° SSE visible
06 Mar 12.2 05:42:02 10° NNW 05:45:58 23° WNW 05:49:46 10° WSW visible
07 Mar 13.9 03:25:26 10° ENE 03:27:42 13° E 03:30:16 10° ESE visible
07 Mar 11.1 05:01:59 10° N 05:06:56 56° WNW 05:11:49 10° SSW visible
08 Mar 11.7 05:22:44 10° NNE 05:27:42 57° E 05:32:38 10° S visible
09 Mar 13.4 04:44:24 10° NE 04:48:12 22° E 04:52:08 10° SE visible
09 Mar 11.7 06:22:31 10° N 06:27:06 35° WNW 06:31:35 10° SW visible
10 Mar 11.0 05:42:53 10° NNE 05:47:58 88° WNW 05:53:00 10° SSW visible
11 Mar 12.6 05:04:02 10° NNE 05:08:37 35° E 05:13:13 10° SSE visible
12 Mar 13.9 04:26:38 10° ENE 04:28:57 14° E 04:31:35 10° ESE visible
12 Mar 11.2 06:03:14 10° N 06:08:10 55° WNW 06:13:03 10° SSW visible
13 Mar 11.7 05:23:58 10° NNE 05:28:56 58° E 05:33:53 10° S visible
14 Mar 13.4 04:45:37 10° NE 04:49:26 22° E 04:53:23 10° SSE visible
14 Mar 11.7 06:23:47 10° N 06:28:20 34° WNW 06:32:48 10° SW visible
